Flag for U.S.A. Weather past 2 weeks in Atascadero, California, U.S.A.

Now
59 °F

Passing clouds.


Feels Like: 57 °F
Forecast: 50 / 64 °F
Wind: 12 mph from Northwest

Location: Paso Robles Municipal Airport

Current Time: Dec 21, 2014 at 7:40:55 PM

Latest Report: Dec 21, 2014 at 6:53 PM


Visibility: 10 mi

Pressure: 30.22 "Hg

Humidity: 84%

Dew point: 54 °F

Location of AtascaderoLocation

Historic Weather in Atascadero — Graph

°F

Atascadero temperature yesterday

Maximum temperature yesterday: 63 °F (at 1:53 PM)
Minimum temperature yesterday: 52 °F (at 12:53 AM)
Average temperature yesterday: 56 °F

Past Weeks' High & Low Weather Summary

 TemperatureHumidityPressure
High66 °F (Dec 8, 3:53 PM)97% (Dec 7, 8:53 AM)30.30 "Hg (Dec 7, 8:53 AM)
Low39 °F (Dec 14, 6:53 AM)58% (Dec 11, 8:53 PM)29.57 "Hg (Dec 11, 8:53 PM)
Average52 °F85%30.08 "Hg
* Reported Dec 6 5:53 PM — Dec 21 5:53 PM, Atascadero, Weather by CustomWeather, © 2014

Note: Actual official high and low records may vary slightly from our data, if they occured in-between our weather recording intervals... More about our weather records

Advertising

Atascadero weather history for previous 24 hours

 ConditionsComfort  
Time TempWeatherWind HumidityBarometerVisibility
5:53 PM
Dec 21
60 °FPassing clouds.9 mph83%30.22 "Hg10 mi
4:53 PM63 °FMostly cloudy.8 mph78%30.20 "Hg10 mi
3:53 PM64 °FScattered clouds.6 mph73%30.21 "Hg10 mi
2:53 PM64 °FPartly sunny.7 mph73%30.20 "Hg10 mi
1:53 PM62 °FSunny.5 mph75%30.21 "Hg10 mi
12:53 PM59 °FSunny.3 mph81%30.23 "Hg10 mi
11:53 AM57 °FLow clouds.5 mph83%30.26 "Hg10 mi
10:53 AM52 °FFog.No wind93%30.29 "Hg2 mi
9:53 AM51 °FFog.3 mph92%30.30 "Hg1 mi
8:53 AM50 °FFog.3 mph93%30.29 "Hg0 mi
7:53 AM50 °FFog.5 mph93%30.29 "Hg0 mi
7:04 AM51 °FFog.3 mph92%30.29 "Hg2 mi
6:53 AM50 °FFog.No wind96%30.28 "Hg1 mi
6:00 AM50 °FFog.No wind93%30.27 "Hg0 mi
4:53 AM50 °FFog.No wind93%30.26 "Hg0 mi
4:04 AM51 °FFog.5 mph92%30.26 "Hg1 mi
3:53 AM51 °FFog.5 mph92%30.26 "Hg0 mi
3:01 AM50 °FPassing clouds.No wind93%30.26 "Hg8 mi
1:53 AM51 °FLow clouds.No wind92%30.26 "Hg10 mi
12:53 AM51 °FClear.5 mph89%30.26 "Hg10 mi
11:53 PM
Dec 20
53 °FClear.7 mph86%30.26 "Hg10 mi
10:53 PM54 °FClear.7 mph83%30.26 "Hg10 mi
9:53 PM54 °FClear.5 mph83%30.27 "Hg10 mi
8:53 PM56 °FPassing clouds.14 mph77%30.25 "Hg10 mi
7:53 PM56 °FPassing clouds.5 mph87%30.23 "Hg10 mi
Weather by CustomWeather, © 2014

See weather overviewHow to use our weather pages